Location: Bonham
(33.5773°N, 96.1783°W)
Time: 17:55:44
(UTC+00:00)

ATLAS 2AS CENTAUR R/B - Visible Passes

Search period start: 13 November 2025 00:00
Search period end: 23 November 2025 00:00
Orbit: 1046 x 1164 km, 63.7° (Epoch: 13 November)

Date Brightness Start Highest point End Pass type
(mag) Time Alt. Az. Time Alt. Az. Time Alt. Az.
17 Nov 4.8 02:18:01 10° NNW 02:18:43 13° N 02:18:43 13° N visible
18 Nov 4.4 01:33:34 10° N 01:35:19 16° N 01:35:19 16° N visible
19 Nov 4.3 00:49:36 10° N 00:52:00 14° NNE 00:52:00 14° NNE visible
19 Nov 4.8 02:38:21 10° NNW 02:39:27 15° NNW 02:39:27 15° NNW visible
20 Nov 4.1 01:53:31 10° NNW 01:56:13 24° N 01:56:13 24° N visible
21 Nov 3.7 01:08:55 10° N 01:13:07 26° NNE 01:13:07 26° NNE visible
21 Nov 4.9 02:59:18 10° NW 03:00:34 16° NW 03:00:34 16° NW visible
22 Nov 3.9 00:24:39 10° N 00:29:12 19° NE 00:30:09 18° NE visible
22 Nov 3.8 02:14:04 10° NNW 02:17:38 34° NW 02:17:38 34° NW visible
22 Nov 4.3 23:41:09 10° NNE 23:43:30 12° NE 23:45:52 10° ENE visible
